Location: Le Rocchette
(44.3500°N, 7.8333°E)
Time: 05:20:18
(UTC+00:00)

CZ-4B R/B - Pass Details

Date: 17 November 2019
Orbit: 486 x 653 km, 97.8° (Epoch: 05 December)

Event Time Altitude Azimuth Distance (km) Brightness Sun altitude
Rises 04:03:05 0° 15° (NNE) 2,567 6.4 -25.5°
Reaches altitude 10° 04:05:09 10° 18° (NNE) 1,684 5.5 -25.2°
Enters shadow 04:06:35 23° 23° (NNE) 1,100 4.5 -24.9°
